KAITUO 1B
1 40912U 15049P   18091.97997969  .00001079  00000-0  55429-4 0  9995
2 40912  97.4514 100.3903 0013676 279.1332 138.9290 15.18565778140105
TIANWANG 1C (TW-1C)
1 40926U 15051B   18092.40822797  .00006420  00000-0  12540-3 0  9999
2 40926  97.1923 135.1328 0009878 182.3460 303.0190 15.47768630141585
TIANWANG 1B (TW-1B)
1 40927U 15051C   18092.56917294  .00006388  00000-0  13002-3 0  9991
2 40927  97.2010 135.1649 0009722 194.7170 321.6744 15.46573299141522
TIANWANG 1A (TW-1A)
1 40928U 15051D   18092.37429412  .00002578  00000-0  70433-4 0  9990
2 40928  97.1938 127.8468 0010313 229.7764 250.9695 15.38263461141127
LAPAN A2
1 40931U 15052B   18091.25995605  .00000818  00000-0  24910-4 0  9997
2 40931   6.0003 338.6028 0013092 357.3681   2.6533 14.76571166135615
LQSAT
1 40958U 15057A   18092.42531470  .00000001  00000-0  78531-5 0  9990
2 40958  97.9449 167.2131 0017101 216.1924 143.8123 14.73022998133695
CHUBUSAT 2
1 41338U 16012B   18092.18510401  .00000352  00000-0  20860-4 0  9999
2 41338  31.0034  76.5099 0013809  40.8522 319.3146 14.99946654116417
CHUBUSAT 3
1 41339U 16012C   18092.07533618  .00000336  00000-0  19471-4 0  9991
2 41339  31.0108  75.9157 0013423  46.0569 314.1177 15.00136638116388
OUFTI-1
1 41458U 16025C   18092.42128939  .00001694  00000-0  91818-4 0  9995
2 41458  98.1458 151.2016 0171580  42.2802 319.1478 15.04432354106040
E-STAR-2
1 41459U 16025D   18092.34858312  .00001588  00000-0  86463-4 0  9994
2 41459  98.1460 150.9944 0173123  43.1352 318.3259 15.04182429106026
AAUSAT 4
1 41460U 16025E   18092.39697565  .00001776  00000-0  95625-4 0  9991
2 41460  98.1392 151.4326 0163974  39.5342 321.7703 15.05523165106088
NUSAT 1
1 41557U 16033B   18092.21316430  .00001256  00000-0  48392-4 0  9999
2 41557  97.4383 176.5692 0015362  69.3184 290.9700 15.28137072102558
BEESAT 4
1 41619U 16040W   18092.13403307  .00001332  00000-0  61509-4 0  9997
2 41619  97.4231 156.3119 0013006 132.1952 228.0391 15.21885656 86521
PRATHAM
1 41783U 16059A   18092.14787016  .00000052  00000-0  19603-4 0  9998
2 41783  98.1260 154.9038 0032940 336.5264  23.4432 14.62909777 80848
ALSAT 1N
1 41789U 16059G   18092.37412042  .00000060  00000-0  20596-4 0  9995
2 41789  98.1265 156.1971 0027571 328.8865  31.0704 14.64138245 80926
NAYIF 1
1 42017U 17008BX  18092.14499548  .00001370  00000-0  59203-4 0  9998
2 42017  97.4558 157.6359 0004855 292.3056  67.7666 15.24186391 62487
LILACSAT-1
1 42725U 98067ME  18092.25132965  .00022604  00000-0  22286-3 0  9990
2 42725  51.6381  24.3926 0003190 315.9232  44.1509 15.65846232 48603
MAX VALIER SAT
1 42778U 17036P   18092.20638685  .00000871  00000-0  42192-4 0  9991
2 42778  97.4119 153.1538 0011965 343.5059  16.5785 15.21134306 42956
